[[{"header":{"parameterUnit":"m.s-1","parameterCategory":1,"la1":30.2991,"la2":30.254,"lo1":-89.0895,"lo2":-89.0444,"dy":0.0017,"dx":0.0017,"nx":28,"ny":28,"refTime":"2025-01-12T09:00:00:Z","depth":0,"parameterNumber":2,"parameterNumberName":"U-component_of_WINDS"},"data":[0,0,0,0,0,0,0,0,0,0,0,0,0,0,0,0,0,0,0,0,0,0,0,0,0,0,0,0,0,0,0,0,0,0,0,0,0,0,0,0,0,0,0,0,0,0,0,0,0,0,0,0,0,0,0,0,0,0,-1.0053,-1.0053,0,-1.0083,-1.0084,-1.0084,-1.0053,-1.0052,-1.0051,-1.005,-1.0082,-1.0084,-1.0086,0,0,0,0,0,0,0,0,0,0,0,0,0,-0.9969,-0.9971,-1.0053,-1.0053,-1.0054,-1.0083,-1.0084,-1.0084,-1.0053,-1.0052,-1.005,-1.0049,-1.0081,-1.0084,-1.0086,0,0,0,0,0,0,0,0,0,0,0,0,0,-1.0003,-0.9972,-1.0053,-1.0042,-1.0041,-1.0083,-1.0084,-1.0084,-1.0054,-1.0052,-1.005,-1.0048,-1.0081,-1.0084,-1.0087,-1.0141,0,0,-1.0096,-1.0097,0,0,0,0,0,0,0,0,-1.0001,-1.0006,-1.0043,-1.0043,-1.0042,-1.0063,-1.0066,-1.0103,-1.0054,-1.0049,-1.0049,-1.0047,-1.0077,-1.008,-1.009,-1.0143,-1.0144,-1.0096,-1.0098,-1.0099,-1.01,0,0,0,0,0,0,0,-0.9999,-1.0005,-1.0065,-1.0044,-1.0043,-1.0036,-1.0039,-1.0073,-1.0073,-1.0049,-1.0047,-1.0051,-1.0077,-1.0087,-1.0091,-1.0145,-1.0096,-1.0098,-1.01,-1.0102,-1.0244,-1.0246,0,0,0,0,0,0,-0.9998,-1.0003,-1.0064,-1.0066,-1.0017,-1.0039,-1.0042,-1.0058,-1.0072,-1.0073,-1.0053,-1.0049,-1.0083,-1.0087,-1.0092,-1.0157,-1.0099,-1.0102,-1.0104,-1.0242,-1.0244,-1.0246,0,0,0,0,0,0,-0.9996,-1.0004,-1.0063,-1.0034,-1.0041,-1.0042,-1.006,-1.0059,-1.007,-1.0075,-1.0075,-1.0064,-1.0082,-1.0087,-1.0129,-1.0158,-1.0103,-1.0106,-1.0239,-1.0243,-1.0245,-1.0288,0,0,0,0,0,0,-0.9994,-1.0003,-1.0024,-1.0035,-1.0043,-1.01,-1.0062,-1.0061,-1.0075,-1.0071,-1.0085,-1.0086,-1.0081,-1.0125,-1.0132,-1.0161,-1.0108,-1.0237,-1.0241,-1.0244,-1.0284,-1.0292,-1.0299,0,0,0,0,0,-0.9991,-1.0035,-1.0025,-1.0033,-1.0069,-1.0102,-1.0106,-1.0099,-1.0078,-1.0099,-1.0101,-1.0085,-1.0153,-1.0129,-1.0137,-1.0167,-1.0235,-1.024,-1.0244,-1.0281,-1.0291,-1.0299,0,0,0,0,0,0,-1.0029,-1.0036,-1.0025,-1.0074,-1.0087,-1.0096,-1.0123,-1.011,-1.013,-1.0125,-1.0116,-1.0119,-1.0164,-1.0169,-1.0143,-1.0221,-1.0191,-1.0197,-1.0216,-1.0225,-1.0232,-1.0231,-1.0111,0,0,0,0,0,-1.0042,-1.0068,-1.0074,-1.0116,-1.0123,-1.0122,-1.0136,-1.0129,-1.0143,-1.0148,-1.0154,-1.0168,-1.0192,-1.0209,-1.0232,-1.0284,-1.0287,-1.0309,-1.0316,-1.0322,-1.0328,-1.0357,-1.0366,-1.0261,-1.0261,-1.0261,0,0,-1.0072,-1.0079,-1.0096,-1.0124,-1.0133,-1.0161,-1.0127,-1.0157,-1.0177,-1.0153,-1.0193,-1.0197,-1.0212,-1.026,-1.0281,-1.0266,-1.0358,-1.0328,-1.0333,-1.0335,-1.0362,-1.0372,-1.0381,-1.0264,-1.0263,-1.0263,0,0,-1.0139,-1.0147,-1.0183,-1.0193,-1.0207,-1.0206,-1.0214,-1.0225,-1.0227,-1.0267,-1.0249,-1.0273,-1.0315,-1.0326,-1.0337,-1.0408,-1.0394,-1.0415,-1.0455,-1.0482,-1.0491,-1.0498,-1.0524,-1.0533,-1.0421,-1.0421,-1.0421,0,-1.0174,-1.0214,-1.0204,-1.0235,-1.0248,-1.0226,-1.0263,-1.0273,-1.0294,-1.0304,-1.0286,-1.0339,-1.0347,-1.0397,-1.0414,-1.0423,-1.0433,-1.0414,-1.049,-1.0497,-1.0504,-1.0529,-1.0538,-1.0424,-1.0423,-1.0423,-1.0423,0,-1.0256,-1.0284,-1.0311,-1.0332,-1.0348,-1.0382,-1.0377,-1.0394,-1.0386,-1.0386,-1.0427,-1.0436,-1.046,-1.0471,-1.0463,-1.052,-1.051,-1.0491,-1.0461,-1.0517,-1.054,-1.0549,-1.0427,-1.0426,-1.0426,-1.0425,0,0,-1.0349,-1.0363,-1.0373,-1.0382,-1.0396,-1.0417,-1.045,-1.0473,-1.0488,-1.0503,-1.0531,-1.0566,-1.0549,-1.0562,-1.0555,-1.0579,-1.0635,-1.0558,-1.0558,-1.0572,-1.0698,-1.0712,-1.0723,-1.0625,-1.0626,-1.0628,-1.0697,0,-1.0417,-1.0474,-1.0466,-1.0521,-1.0547,-1.0526,-1.0554,-1.0566,-1.0567,-1.0589,-1.059,-1.0615,-1.059,-1.0598,-1.0621,-1.0623,-1.066,-1.0618,-1.0651,-1.0652,-1.0649,-1.0735,-1.0751,-1.0816,-1.0706,-1.0707,-1.0708,0,-1.0505,-1.0523,-1.058,-1.0589,-1.06,-1.0626,-1.0646,-1.0667,-1.0679,-1.0678,-1.0692,-1.068,-1.0713,-1.0681,-1.0727,-1.0698,-1.0711,-1.0714,-1.0716,-1.072,-1.0685,-1.0742,-1.0836,-1.0846,-1.0722,-1.0721,-1.072,0,-1.0569,-1.0606,-1.0646,-1.0654,-1.0665,-1.0684,-1.069,-1.07,-1.0714,-1.0732,-1.0741,-1.0762,-1.0774,-1.079,-1.0785,-1.0762,-1.0832,-1.0799,-1.0832,-1.0833,-1.0849,-1.0849,-1.0948,-1.0856,-1.0856,-1.0855,-1.0855,0,-1.0646,-1.0683,-1.0674,-1.0699,-1.0738,-1.0728,-1.0768,-1.0771,-1.078,-1.0805,-1.0787,-1.0811,-1.0802,-1.0824,-1.082,-1.0859,-1.0864,-1.0864,-1.0863,-1.0867,-1.0867,-1.0876,-1.0872,-1.0858,-1.0857,-1.0857,-1.0856,0,-1.0725,-1.0721,-1.0762,-1.0769,-1.0771,-1.0801,-1.0807,-1.0829,-1.0828,-1.086,-1.0866,-1.0865,-1.0891,-1.0886,-1.0915,-1.0912,-1.0961,-1.0953,-1.0957,-1.0955,-1.0989,-1.0987,-1.1099,-1.1113,-1.1011,-1.1012,-1.1013,0,-1.0776,-1.0803,-1.0812,-1.0827,-1.0834,-1.0859,-1.0873,-1.0863,-1.0878,-1.0894,-1.0915,-1.0939,-1.0958,-1.1001,-1.1003,-1.1024,-1.1018,-1.1056,-1.1021,-1.1024,-1.102,-1.1019,-1.1021,-1.1063,-1.1064,-1.1065,-1.1066,0,-1.0866,-1.0862,-1.0883,-1.0903,-1.092,-1.0936,-1.0949,-1.0963,-1.0954,-1.0972,-1.0998,-1.1013,-1.1042,-1.1067,-1.1087,-1.1093,-1.1078,-1.1076,-1.1085,-1.109,-1.1091,-1.1092,-1.0976,-1.1074,-1.1074,-1.1073,-1.1072,-1.1072,-1.0933,-1.0956,-1.0966,-1.099,-1.0999,-1.1012,-1.1034,-1.1035,-1.1056,-1.1079,-1.1072,-1.1101,-1.1112,-1.1138,-1.1146,-1.1169,-1.1155,-1.1168,-1.1172,-1.1175,-1.118,-1.1086,-1.1173,-1.1172,-1.1172,-1.1172,-1.1172,0,-1.1023,-1.1028,-1.105,-1.107,-1.1088,-1.1072,-1.1086,-1.1103,-1.1129,-1.114,-1.1159,-1.1188,-1.1212,-1.1215,-1.1237,-1.1255,-1.1249,-1.1261,-1.126,-1.1262,-1.1191,-1.1181,-1.1265,-1.1265,-1.1265,-1.1265,-1.1265,-1.1265,-1.1073,-1.1111,-1.1109,-1.1151,-1.1156,-1.1185,-1.1194,-1.1206,-1.1215,-1.1249,-1.1268,-1.1269,-1.1277,-1.1299,-1.132,-1.132,-1.133,-1.1345,-1.1343,-1.1276,-1.1267,-1.1258,-1.1249,-1.1346,-1.1347,-1.1412,-1.1413,-1.1413]},{"header":{"parameterUnit":"m.s-1","parameterCategory":1,"la1":30.2991,"la2":30.254,"lo1":-89.0895,"lo2":-89.0444,"dy":0.0017,"dx":0.0017,"nx":28,"ny":28,"refTime":"2025-01-12T09:00:00:Z","depth":0,"parameterNumber":3,"parameterNumberName":"V-component_of_WINDS"},"data":[0,0,0,0,0,0,0,0,0,0,0,0,0,0,0,0,0,0,0,0,0,0,0,0,0,0,0,0,0,0,0,0,0,0,0,0,0,0,0,0,0,0,0,0,0,0,0,0,0,0,0,0,0,0,0,0,0,0,-7.1842,-7.1843,0,-7.1921,-7.1922,-7.1923,-7.1839,-7.1835,-7.1832,-7.1829,-7.1904,-7.1909,-7.1914,0,0,0,0,0,0,0,0,0,0,0,0,0,-7.1613,-7.1618,-7.1842,-7.1843,-7.1844,-7.1921,-7.1922,-7.1923,-7.1839,-7.1835,-7.1831,-7.1828,-7.1903,-7.1909,-7.1915,0,0,0,0,0,0,0,0,0,0,0,0,0,-7.1704,-7.1619,-7.1842,-7.1812,-7.181,-7.1921,-7.1922,-7.1923,-7.184,-7.1835,-7.183,-7.1826,-7.1901,-7.1908,-7.1915,-7.2059,0,0,-7.1938,-7.1942,0,0,0,0,0,0,0,0,-7.1699,-7.1713,-7.1815,-7.1814,-7.1812,-7.1865,-7.1869,-7.1969,-7.1841,-7.1828,-7.1829,-7.1823,-7.1895,-7.1902,-7.1928,-7.2062,-7.2065,-7.1939,-7.1944,-7.1947,-7.1949,0,0,0,0,0,0,0,-7.1693,-7.1709,-7.1873,-7.1817,-7.1815,-7.1792,-7.18,-7.1887,-7.1887,-7.1829,-7.1823,-7.1834,-7.1893,-7.1921,-7.1929,-7.2066,-7.1939,-7.1945,-7.195,-7.1953,-7.2323,-7.2328,0,0,0,0,0,0,-7.1691,-7.1704,-7.1871,-7.1876,-7.1743,-7.18,-7.1809,-7.1853,-7.1886,-7.1887,-7.1838,-7.183,-7.191,-7.192,-7.1931,-7.2102,-7.1947,-7.1954,-7.1958,-7.2317,-7.2324,-7.233,0,0,0,0,0,0,-7.1686,-7.1707,-7.1868,-7.1789,-7.1807,-7.181,-7.186,-7.1857,-7.1885,-7.1893,-7.1892,-7.1867,-7.1907,-7.1921,-7.2028,-7.2103,-7.1957,-7.1964,-7.2311,-7.2319,-7.2327,-7.2444,0,0,0,0,0,0,-7.168,-7.1706,-7.1761,-7.179,-7.1812,-7.1965,-7.1864,-7.1862,-7.1899,-7.1889,-7.192,-7.192,-7.1904,-7.2017,-7.2036,-7.2111,-7.197,-7.2304,-7.2315,-7.2324,-7.2433,-7.2455,-7.2473,0,0,0,0,0,-7.1672,-7.179,-7.1765,-7.1785,-7.1882,-7.197,-7.1982,-7.1962,-7.1905,-7.196,-7.1966,-7.1919,-7.2092,-7.2029,-7.2049,-7.2128,-7.23,-7.2312,-7.2323,-7.2424,-7.2451,-7.2473,0,0,0,0,0,0,-7.1767,-7.1793,-7.1765,-7.1896,-7.1932,-7.1955,-7.2024,-7.199,-7.2041,-7.203,-7.2001,-7.2009,-7.2124,-7.2136,-7.2065,-7.2268,-7.2186,-7.2203,-7.2256,-7.2281,-7.2301,-7.2295,-7.1976,0,0,0,0,0,-7.1803,-7.1874,-7.1892,-7.2006,-7.2025,-7.2022,-7.2059,-7.2042,-7.2076,-7.209,-7.2104,-7.2138,-7.22,-7.2241,-7.2298,-7.2435,-7.244,-7.2498,-7.2518,-7.2535,-7.2549,-7.2623,-7.2649,-7.2369,-7.2369,-7.2369,0,0,-7.1878,-7.1901,-7.1947,-7.2025,-7.2051,-7.2124,-7.2035,-7.2115,-7.2169,-7.2102,-7.2205,-7.2216,-7.2252,-7.2375,-7.243,-7.2389,-7.2628,-7.255,-7.2563,-7.2569,-7.2638,-7.2664,-7.2688,-7.2377,-7.2376,-7.2374,0,0,-7.2053,-7.2078,-7.2175,-7.2203,-7.2244,-7.2241,-7.2265,-7.2294,-7.23,-7.2403,-7.2355,-7.2417,-7.2524,-7.2552,-7.258,-7.2767,-7.2726,-7.2786,-7.289,-7.2962,-7.2984,-7.3004,-7.3071,-7.3095,-7.28,-7.2801,-7.2801,0,-7.214,-7.225,-7.2229,-7.2314,-7.235,-7.2295,-7.2393,-7.242,-7.2477,-7.2502,-7.2455,-7.259,-7.261,-7.2739,-7.2785,-7.2809,-7.2835,-7.2782,-7.2983,-7.3003,-7.302,-7.3084,-7.3109,-7.2808,-7.2807,-7.2806,-7.2806,0,-7.2356,-7.2433,-7.2507,-7.2566,-7.2609,-7.27,-7.2692,-7.2738,-7.2716,-7.2718,-7.2824,-7.2847,-7.2908,-7.2937,-7.2916,-7.3064,-7.3037,-7.2988,-7.2905,-7.3055,-7.3114,-7.3138,-7.2818,-7.2815,-7.2813,-7.2811,0,0,-7.2592,-7.264,-7.2667,-7.2693,-7.2735,-7.2793,-7.2881,-7.2943,-7.2983,-7.3024,-7.3097,-7.3189,-7.3144,-7.3177,-7.3158,-7.3221,-7.3368,-7.3164,-7.3164,-7.3201,-7.3532,-7.357,-7.3598,-7.3341,-7.3346,-7.3349,-7.353,0,-7.2768,-7.2924,-7.2908,-7.3055,-7.3126,-7.3075,-7.3151,-7.3184,-7.3188,-7.3247,-7.325,-7.3317,-7.3252,-7.3272,-7.3332,-7.3338,-7.3434,-7.3324,-7.3408,-7.3411,-7.3401,-7.3629,-7.3669,-7.3838,-7.3552,-7.3556,-7.3559,0,-7.2994,-7.3046,-7.3202,-7.3233,-7.3262,-7.3332,-7.3388,-7.3445,-7.3481,-7.3479,-7.3516,-7.3487,-7.3574,-7.349,-7.3609,-7.3534,-7.3567,-7.3575,-7.3581,-7.3588,-7.3495,-7.3643,-7.3891,-7.3917,-7.3595,-7.3592,-7.359,0,-7.3152,-7.326,-7.3367,-7.3391,-7.343,-7.348,-7.3499,-7.353,-7.3569,-7.3617,-7.3642,-7.3699,-7.373,-7.3774,-7.376,-7.37,-7.3883,-7.3797,-7.3883,-7.3884,-7.3924,-7.3922,-7.4182,-7.3945,-7.3945,-7.3944,-7.3944,0,-7.335,-7.3447,-7.3439,-7.3505,-7.3611,-7.3591,-7.3697,-7.3708,-7.3737,-7.3803,-7.3761,-7.3824,-7.3802,-7.3863,-7.3852,-7.3953,-7.3967,-7.3967,-7.3964,-7.3972,-7.3972,-7.3993,-7.3981,-7.3951,-7.3949,-7.3948,-7.3947,0,-7.3544,-7.3542,-7.3656,-7.3685,-7.3694,-7.3772,-7.3795,-7.3857,-7.3858,-7.3942,-7.396,-7.3962,-7.4032,-7.4022,-7.4099,-7.4092,-7.4217,-7.4199,-7.4206,-7.4202,-7.4289,-7.4282,-7.4573,-7.461,-7.4348,-7.4351,-7.4353,0,-7.3672,-7.3746,-7.3783,-7.3826,-7.3848,-7.3917,-7.3957,-7.394,-7.3983,-7.403,-7.4086,-7.4152,-7.4204,-7.4317,-7.4324,-7.4383,-7.4365,-7.4463,-7.4374,-7.438,-7.4368,-7.4364,-7.4371,-7.4481,-7.4484,-7.4487,-7.4488,0,-7.3898,-7.3894,-7.3954,-7.4016,-7.4065,-7.4112,-7.4153,-7.419,-7.4176,-7.4227,-7.4299,-7.434,-7.4419,-7.4486,-7.4541,-7.4557,-7.4521,-7.4517,-7.454,-7.4549,-7.4551,-7.4552,-7.4255,-7.451,-7.4508,-7.4506,-7.4505,-7.4504,-7.4063,-7.4127,-7.4164,-7.4233,-7.4263,-7.4303,-7.4363,-7.4373,-7.4433,-7.4499,-7.4484,-7.4565,-7.4599,-7.467,-7.4692,-7.4755,-7.4718,-7.4752,-7.476,-7.4769,-7.478,-7.4541,-7.4764,-7.4764,-7.4763,-7.4763,-7.4762,0,-7.4287,-7.4309,-7.4373,-7.4435,-7.4489,-7.4452,-7.4496,-7.4544,-7.4617,-7.4652,-7.4705,-7.4788,-7.4852,-7.4865,-7.4926,-7.4973,-7.4958,-7.499,-7.4986,-7.4991,-7.4808,-7.4783,-7.5001,-7.5001,-7.5001,-7.5001,-7.5001,-7.5001,-7.4411,-7.4518,-7.4518,-7.4638,-7.4658,-7.474,-7.4769,-7.4806,-7.4834,-7.4929,-7.4984,-7.4992,-7.5018,-7.508,-7.5137,-7.5139,-7.5164,-7.5202,-7.5198,-7.5027,-7.5003,-7.4981,-7.4956,-7.5208,-7.5208,-7.5375,-7.5376,-7.5377]}]]